User: anonymous   Login
Location: Unspecified
(0.0000°N, 0.0000°E)
Time: 02:20:48
(UTC+00:00)
Language:

Injun/Solrad 3 - Orbit

View from above orbital plane
View from above orbital plane
View from above satellite
View from above satellite

Ground track
Ground track

The orbit data is extracted from the following two-line orbital elements,

1   117U 61015B   17343.58026707 -.00000050 +00000-0 +21445-4 0  9991
2   117 066.8135 027.7154 0082909 310.3460 049.0397 13.89818561861659
Epoch (UTC): 09 December 2017 13:55:35
Eccentricity: 0.0082909
inclination: 66.8135°
perigee height: 868 km
apogee height: 990 km
right ascension of ascending node: 27.7154°
argument of perigee: 310.3460°
revolutions per day: 13.89818561
mean anomaly at epoch: 49.0397°
orbit number at epoch: 86165

The dashed part of the orbit path shows where the satellite is in the earth's shadow,  

DLR